Syracuse, NY

11:01 AM EST on November 17, 2019 (GMT -0500)
Syracuse Hancock International

Weather History for KSYR - September, 2019

Change the Weather History Date:

Saturday, September 14, 2019

  Actual Average Record
Temperature  
Mean Temperature 67 °F 63 °F  
Max Temperature 75 °F 73 °F 90 °F (1931)
Min Temperature 58 °F 53 °F 35 °F (1963)
Degree Days  
Heating Degree Days 0 4  
Month to date heating degree days 23 36  
Since 1 July heating degree days 28 62  
Cooling Degree Days 2 2  
Month to date cooling degree days 21 37  
Year to date cooling degree days 589 550  
Growing Degree Days 17 (Base 50)    
Moisture  
Dew Point 57 °F    
Average Humidity 70    
Maximum Humidity 90    
Minimum Humidity 60    
Precipitation  
Precipitation 0.02 in 0.13 in 1.94 in (1973)
Month to date precipitation 1.93 1.66  
Year to date precipitation 32.57 26.25  
Snow  
Snow 0.00 in 0.00 in 0.00 in (2002)
Month to date snowfall 0.0 0.0  
Since 1 July snowfall T 0.0  
Since 1 September snowfall 0.0 0.0  
Snow Depth 0.00 in    
Sea Level Pressure  
Sea Level Pressure 30.13 in    
Wind  
Wind Speed 9 mph ()    
Max Wind Speed 22 mph    
Max Gust Speed 28 mph    
Visibility 10.0 miles    
Events Rain , Thunderstorm    
T = Trace of Precipitation, MM = Missing Value Source: Averaged Metar Reports

Daily Weather History Graph

Daily Weather History Graph

Search for Another Location

Airport or City:

Astronomy

Sep. 14, 2019 Rise Set
Actual Time 6:42 AM EDT 7:16 PM EDT
Civil Twilight 6:14 AM EDT 7:45 PM EDT
Nautical Twilight 5:40 AM EDT 8:18 PM EDT
Astronomical Twilight 5:05 AM EDT 8:53 PM EDT
Moon 7:56 PM EDT (9/14) 6:52 AM EDT (9/14)
Length of Visible Light 13h 31m
Length of Day
12h 33m
Full, 100% of the Moon is Illuminated
Sep 14
Full
Sep 21
Last Quarter
Sep 28
New
Oct 5
First Quarter
Oct 13
Full

Hourly Weather History & Observations

Time (EDT) Temp. Dew Point Humidity Pressure Visibility Wind Dir Wind Speed Gust Speed Precip Events Conditions
12:54 AM 64.0 °F 51.1 °F 63% 30.18 in 10.0 mi SSE 9.2 mph 23.0 mph N/A   Mostly Cloudy
1:54 AM 64.0 °F 51.1 °F 63% 30.15 in 10.0 mi SE 11.5 mph - N/A   Mostly Cloudy
2:54 AM 64.9 °F 51.1 °F 61% 30.14 in 10.0 mi SSE 12.7 mph 24.2 mph N/A   Overcast
3:32 AM 64.0 °F 52.0 °F 65% 30.16 in 10.0 mi SSE 11.5 mph 25.3 mph N/A Thunderstorm Mostly Cloudy
3:40 AM 64.4 °F 51.8 °F 64% 30.17 in 10.0 mi Variable 6.9 mph 21.9 mph N/A Thunderstorm Thunderstorm
3:54 AM 64.0 °F 52.0 °F 65% 30.16 in 10.0 mi South 9.2 mph 20.7 mph 0.00 in Rain , Thunderstorm Light Thunderstorms and Rain
4:09 AM 64.0 °F 52.0 °F 65% 30.17 in 10.0 mi South 12.7 mph - 0.00 in   Mostly Cloudy
4:54 AM 62.1 °F 54.0 °F 75% 30.15 in 10.0 mi South 13.8 mph 19.6 mph 0.00 in Rain Light Rain
5:54 AM 63.0 °F 54.0 °F 72% 30.14 in 10.0 mi South 15.0 mph 19.6 mph 0.00 in   Mostly Cloudy
6:54 AM 62.1 °F 55.9 °F 80% 30.13 in 10.0 mi Variable 5.8 mph - 0.01 in Rain Light Rain
7:54 AM 63.0 °F 55.9 °F 78% 30.14 in 10.0 mi South 10.4 mph 24.2 mph 0.01 in   Overcast
8:54 AM 64.0 °F 55.9 °F 75% 30.14 in 10.0 mi South 12.7 mph 18.4 mph N/A   Overcast
9:40 AM 64.9 °F 57.9 °F 78% 30.15 in 10.0 mi South 6.9 mph - N/A   Overcast
9:54 AM 66.0 °F 57.9 °F 75% 30.14 in 10.0 mi South 8.1 mph - N/A   Overcast
10:54 AM 69.1 °F 59.0 °F 70% 30.14 in 10.0 mi SSW 12.7 mph - N/A   Mostly Cloudy
11:45 AM 73.0 °F 61.0 °F 66% 30.14 in 10.0 mi SSW 13.8 mph 27.6 mph N/A   Mostly Cloudy
11:54 AM 73.0 °F 61.0 °F 66% 30.12 in 10.0 mi SW 16.1 mph 27.6 mph N/A   Mostly Cloudy
12:54 PM 75.0 °F 61.0 °F 62% 30.11 in 10.0 mi SSW 17.3 mph - N/A   Mostly Cloudy
1:54 PM 75.0 °F 61.0 °F 62% 30.09 in 10.0 mi SW 13.8 mph 21.9 mph N/A   Mostly Cloudy
2:54 PM 75.9 °F 61.0 °F 60% 30.08 in 10.0 mi SW 16.1 mph - N/A   Mostly Cloudy
3:54 PM 75.0 °F 62.1 °F 64% 30.07 in 10.0 mi SW 15.0 mph - N/A   Mostly Cloudy
4:42 PM 71.1 °F 61.0 °F 70% 30.08 in 10.0 mi NNW 6.9 mph - N/A   Mostly Cloudy
4:54 PM 71.1 °F 61.0 °F 70% 30.08 in 10.0 mi NW 11.5 mph - N/A   Mostly Cloudy
5:20 PM 71.1 °F 60.1 °F 68% 30.09 in 10.0 mi NNW 11.5 mph - N/A   Mostly Cloudy
5:54 PM 70.0 °F 57.9 °F 65% 30.09 in 10.0 mi NW 10.4 mph - N/A   Mostly Cloudy
6:54 PM 68.0 °F 55.9 °F 65% 30.12 in 10.0 mi NW 4.6 mph - N/A   Mostly Cloudy
7:54 PM 64.9 °F 57.0 °F 75% 30.13 in 10.0 mi Calm Calm - N/A   Scattered Clouds
8:54 PM 62.1 °F 57.0 °F 84% 30.15 in 10.0 mi Calm Calm - N/A   Partly Cloudy
9:54 PM 60.1 °F 55.9 °F 86% 30.16 in 10.0 mi NW 3.5 mph - N/A   Partly Cloudy
10:54 PM 59.0 °F 55.9 °F 90% 30.16 in 10.0 mi Calm Calm - N/A   Partly Cloudy
11:54 PM 60.1 °F 55.0 °F 83% 30.15 in 10.0 mi SW 5.8 mph - N/A   Partly Cloudy